Regional Weather Roundup
Issued by NWS Goodland, KS

Home | Current Version | Previous Version | Graphics & Text | Print | Product List | Glossary On
Versions: 1 2 3 4 5 6 7 8 9 10 11 12 13 14 15 16 17 18 19 20 21 22 23 24 25 26 27 28 29 30 31 32 33 34 35 36 37 38 39 40 41 42 43 44 45 46 47 48 49 50
511
ASUS43 KGLD 220108
RWRGLD

GOODLAND FORECAST AREA HOURLY WEATHER ROUNDUP
NATIONAL WEATHER SERVICE GOODLAND KS
700 PM MDT THU MAY 21 2015

...OFFICIAL OBSERVATIONS...

CITY           SKY/WX    TMP DP  RH WIND       PRES   REMARKS
GOODLAND KS    CLOUDY    54  44  69 S15       30.17S
HILL CITY KS   MOCLDY    59  42  53 SE7       30.19R
IMPERIAL NEB   CLOUDY    57  43  59 SE10      30.17S
MCCOOK NEB     MOCLDY    60  41  49 SE8       30.17S
AKRON CO       CLOUDY    52  44  74 S13       30.14S
BURLINGTON CO  CLOUDY    52  43  71 SE16      30.17S
LIMON CO       CLOUDY    48  43  82 SE16      30.14F
$$

...UNOFFICIAL OBSERVATIONS...

CITY           SKY/WX    TMP DP  RH WIND       PRES   REMARKS
COLBY KS       CLOUDY    57  46  67 SE12      30.20R
GOVE KS          N/A     58  32  37 MISG        N/A
LENORA KS        N/A     58  32  37 MISG        N/A
NORTON KS      CLEAR     57  36  44 SE6       30.17S
SHARON SPRINGS   N/A     54  46  75 MISG        N/A
TRENTON NEB      N/A     58  32  37 SE9         N/A
KIT CARSON CO    N/A     51  44  78 MISG        N/A
YUMA CO          N/A     54  44  67 SE8G18      N/A
$$



USA.gov is the U.S. government's official web portal to all federal, state and local government web resources and services.